QPF
0.03 0.04 0.04 0.03 0.04 0.05 0.04 0.04 0.03 0.02 0.03 0.02 0.02 0.03 0.03 0.02 0.02 0.02 0.02 0.02 0.02 0.03 0.09 0.13 0.07 0.04 0.04 0.03 0.03 0.03 0.04 0.04 0.04 0.02 0.03 0.03 0.03 0.02 0.03 0.05 0.06 0.05 0.06
0.01 0.02 0.03 0.03 0.04 0.04 0.03 0.03 0.02 0.01 0.02 0.03 0.02 0.01 0.01 0.01 0.01 0.01 0.01 0.01 0.01 0.02 0.06 0.09 0.07 0.06 0.06 0.04 0.03 0.02 0.02 0.03 0.04 0.03 0.03 0.03 0.03 0.03 0.04 0.05 0.05 0.05 0.07
0.01 0.01 0.02 0.02 0.02 0.03 0.02 0.01 0.01 0.01 0.02 0.03 0.02 0.02 0.01 0.01 0.01 0.00 0.00 0.01 0.01 0.01 0.02 0.04 0.03 0.05 0.07 0.05 0.04 0.04 0.05 0.04 0.04 0.03 0.03 0.04 0.04 0.05 0.07 0.08 0.07 0.05 0.05
0.01 0.01 0.02 0.01 0.02 0.03 0.02 0.02 0.02 0.03 0.05 0.04 0.03 0.02 0.01 0.01 0.01 0.00 0.00 0.01 0.02 0.02 0.02 0.02 0.02 0.03 0.04 0.05 0.06 0.06 0.05 0.04 0.03 0.04 0.04 0.04 0.06 0.07 0.07 0.07 0.06 0.04 0.04
0.02 0.02 0.03 0.03 0.02 0.01 0.02 0.02 0.02 0.04 0.06 0.03 0.01 0.01 0.01 0.01 0.01 0.00 0.01 0.01 0.01 0.02 0.02 0.01 0.01 0.02 0.03 0.06 0.06 0.07 0.06 0.07 0.06 0.06 0.05 0.04 0.05 0.07 0.06 0.04 0.03 0.03 0.03
0.02 0.03 0.03 0.03 0.02 0.02 0.03 0.03 0.03 0.02 0.02 0.01 0.01 0.02 0.01 0.01 0.01 0.01 0.01 0.01 0.01 0.01 0.01 0.01 0.02 0.02 0.02 0.03 0.04 0.07 0.08 0.08 0.07 0.07 0.05 0.04 0.05 0.05 0.04 0.03 0.02 0.03 0.04
0.02 0.03 0.04 0.03 0.03 0.03 0.03 0.03 0.04 0.03 0.02 0.01 0.02 0.02 0.02 0.01 0.00 0.01 0.01 0.01 0.01 0.01 0.01 0.01 0.02 0.02 0.02 0.02 0.02 0.04 0.04 0.05 0.07 0.06 0.06 0.05 0.04 0.04 0.03 0.02 0.02 0.02 0.03
0.02 0.02 0.04 0.04 0.02 0.03 0.03 0.03 0.03 0.02 0.02 0.02 0.04 0.04 0.03 0.02 0.01 0.01 0.01 0.01 0.01 0.01 0.01 0.01 0.02 0.02 0.03 0.03 0.04 0.03 0.04 0.05 0.08 0.07 0.05 0.04 0.03 0.02 0.02 0.02 0.02 0.02 0.02
0.01 0.02 0.03 0.04 0.03 0.03 0.04 0.03 0.02 0.02 0.03 0.02 0.03 0.04 0.04 0.03 0.02 0.02 0.01 0.01 0.01 0.01 0.01 0.01 0.01 0.01 0.02 0.03 0.03 0.03 0.04 0.05 0.07 0.08 0.07 0.05 0.04 0.03 0.02 0.02 0.02 0.02 0.02
0.01 0.02 0.01 0.01 0.02 0.02 0.02 0.02 0.01 0.02 0.03 0.04 0.03 0.02 0.02 0.02 0.03 0.02 0.01 0.00 0.00 0.01 0.01 0.01 0.01 0.01 0.02 0.04 0.04 0.03 0.03 0.03 0.05 0.07 0.07 0.07 0.06 0.04 0.03 0.02 0.03 0.03 0.03
0.01 0.02 0.01 0.01 0.01 0.01 0.01 0.01 0.01 0.01 0.01 0.03 0.04 0.02 0.01 0.02 0.03 0.04 0.03 0.01 0.01 0.01 0.01 0.01 0.01 0.02 0.01 0.02 0.04 0.03 0.02 0.01 0.01 0.03 0.05 0.05 0.04 0.04 0.03 0.03 0.03 0.02 0.02
0.02 0.02 0.01 0.01 0.01 0.02 0.02 0.02 0.02 0.02 0.01 0.02 0.03 0.02 0.03 0.03 0.03 0.03 0.03 0.02 0.01 0.02 0.01 0.01 0.01 0.02 0.02 0.03 0.02 0.02 0.01 0.01 0.01 0.02 0.04 0.04 0.04 0.04 0.05 0.04 0.04 0.04 0.03
0.04 0.02 0.01 0.02 0.02 0.02 0.02 0.02 0.02 0.02 0.02 0.03 0.03 0.03 0.03 0.02 0.02 0.04 0.04 0.02 0.03 0.03 0.02 0.02 0.02 0.02 0.02 0.02 0.02 0.02 0.02 0.02 0.02 0.05 0.07 0.07 0.05 0.04 0.04 0.03 0.03 0.04 0.04
0.03 0.01 0.01 0.02 0.02 0.02 0.02 0.02 0.02 0.03 0.04 0.04 0.03 0.03 0.03 0.02 0.02 0.03 0.04 0.04 0.03 0.03 0.03 0.02 0.02 0.02 0.02 0.02 0.01 0.02 0.02 0.02 0.03 0.05 0.07 0.07 0.06 0.03 0.02 0.02 0.02 0.02 0.03
0.03 0.02 0.02 0.02 0.02 0.02 0.02 0.03 0.04 0.03 0.03 0.03 0.03 0.03 0.02 0.02 0.02 0.03 0.05 0.06 0.05 0.05 0.05 0.04 0.02 0.02 0.01 0.01 0.01 0.01 0.01 0.01 0.01 0.01 0.02 0.02 0.03 0.02 0.02 0.01 0.01 0.01 0.03
0.02 0.02 0.03 0.02 0.03 0.02 0.02 0.03 0.04 0.03 0.02 0.03 0.02 0.03 0.03 0.03 0.03 0.04 0.05 0.06 0.05 0.05 0.05 0.04 0.02 0.01 0.01 0.00 0.01 0.01 0.01 0.01 0.01 0.01 0.01 0.02 0.01 0.01 0.01 0.01 0.01 0.01 0.01
0.03 0.03 0.03 0.03 0.03 0.03 0.03 0.03 0.03 0.03 0.03 0.03 0.02 0.02 0.03 0.02 0.02 0.03 0.05 0.05 0.05 0.05 0.04 0.03 0.03 0.02 0.01 0.01 0.01 0.01 0.01 0.01 0.01 0.01 0.01 0.01 0.01 0.00 0.00 0.00 0.00 0.00 0.01
0.03 0.03 0.03 0.03 0.03 0.02 0.02 0.03 0.03 0.03 0.03 0.03 0.03 0.03 0.03 0.02 0.02 0.02 0.03 0.05 0.05 0.05 0.04 0.04 0.03 0.02 0.02 0.01 0.02 0.02 0.02 0.02 0.02 0.02 0.01 0.01 0.01 0.00 0.00 0.00 0.00 0.01 0.01
0.06 0.04 0.03 0.03 0.03 0.03 0.03 0.04 0.05 0.05 0.04 0.03 0.03 0.03 0.02 0.02 0.02 0.02 0.02 0.02 0.04 0.05 0.05 0.05 0.05 0.05 0.04 0.03 0.03 0.02 0.02 0.02 0.02 0.02 0.02 0.01 0.01 0.01 0.00 0.00 0.00 0.00 0.00
0.07 0.06 0.05 0.03 0.03 0.04 0.05 0.05 0.05 0.04 0.02 0.02 0.02 0.02 0.01 0.01 0.01 0.01 0.01 0.01 0.02 0.03 0.02 0.03 0.04 0.05 0.04 0.03 0.02 0.02 0.01 0.02 0.02 0.02 0.02 0.01 0.01 0.01 0.00 0.00 0.00 0.00 0.00
0.06 0.06 0.06 0.05 0.05 0.05 0.04 0.05 0.05 0.04 0.02 0.02 0.02 0.02 0.02 0.02 0.01 0.01 0.01 0.01 0.02 0.01 0.01 0.01 0.02 0.02 0.01 0.01 0.01 0.01 0.01 0.02 0.02 0.02 0.02 0.02 0.01 0.01 0.01 0.00 0.00 0.00 0.00
0.05 0.05 0.05 0.05 0.05 0.06 0.06 0.05 0.04 0.03 0.02 0.01 0.01 0.01 0.02 0.02 0.01 0.02 0.01 0.01 0.01 0.01 0.02 0.02 0.01 0.01 0.01 0.01 0.01 0.01 0.01 0.01 0.02 0.02 0.02 0.02 0.02 0.01 0.01 0.01 0.01 0.00 0.00
0.06 0.05 0.04 0.04 0.05 0.05 0.04 0.03 0.03 0.03 0.02 0.01 0.01 0.01 0.02 0.02 0.01 0.01 0.01 0.01 0.01 0.01 0.01 0.01 0.01 0.01 0.01 0.01 0.01 0.01 0.01 0.01 0.02 0.02 0.02 0.02 0.02 0.01 0.01 0.01 0.01 0.01 0.00
0.04 0.04 0.03 0.03 0.03 0.03 0.03 0.02 0.02 0.02 0.02 0.02 0.02 0.01 0.01 0.01 0.01 0.01 0.01 0.00 0.00 0.01 0.01 0.01 0.01 0.01 0.01 0.01 0.01 0.01 0.01 0.01 0.02 0.03 0.02 0.02 0.02 0.02 0.01 0.01 0.00 0.00 0.00
0.04 0.03 0.02 0.02 0.02 0.02 0.02 0.02 0.02 0.02 0.01 0.01 0.01 0.01 0.01 0.01 0.01 0.01 0.01 0.00 0.00 0.00 0.00 0.00 0.00 0.00 0.00 0.00 0.00 0.00 0.00 0.01 0.01 0.01 0.02 0.02 0.02 0.02 0.01 0.01 0.01 0.00 0.00
0.04 0.03 0.02 0.02 0.02 0.02 0.01 0.02 0.02 0.02 0.02 0.01 0.01 0.01 0.01 0.01 0.01 0.01 0.00 0.00 0.00 0.00 0.00 0.00 0.00 0.01 0.01 0.01 0.01 0.01 0.01 0.01 0.01 0.01 0.02 0.02 0.02 0.02 0.02 0.01 0.01 0.01 0.00
MSLP
1015.74 1015.58 1015.48 1015.43 1015.43 1015.49 1015.58 1015.69 1015.79 1015.88 1015.94 1015.98 1016.02 1016.09 1016.20 1016.38 1016.62 1016.92 1017.24 1017.55 1017.82 1018.05 1018.21 1018.31 1018.38 1018.43 1018.49 1018.55 1018.62 1018.67 1018.70 1018.68 1018.61 1018.50 1018.36 1018.21 1018.07 1017.95 1017.84 1017.74 1017.63 1017.49 1017.30
1015.75 1015.57 1015.46 1015.43 1015.48 1015.58 1015.73 1015.89 1016.04 1016.17 1016.26 1016.32 1016.37 1016.43 1016.53 1016.69 1016.91 1017.17 1017.46 1017.75 1018.01 1018.23 1018.39 1018.51 1018.60 1018.67 1018.75 1018.82 1018.88 1018.92 1018.93 1018.89 1018.80 1018.68 1018.54 1018.39 1018.26 1018.15 1018.05 1017.96 1017.84 1017.69 1017.49
1015.78 1015.61 1015.52 1015.53 1015.62 1015.78 1015.99 1016.20 1016.40 1016.56 1016.67 1016.74 1016.79 1016.84 1016.93 1017.06 1017.25 1017.48 1017.73 1017.98 1018.21 1018.41 1018.57 1018.69 1018.79 1018.88 1018.96 1019.04 1019.11 1019.14 1019.14 1019.09 1018.99 1018.86 1018.72 1018.58 1018.46 1018.36 1018.27 1018.18 1018.07 1017.92 1017.71
1015.86 1015.72 1015.67 1015.72 1015.87 1016.08 1016.33 1016.59 1016.82 1017.00 1017.13 1017.21 1017.26 1017.32 1017.39 1017.50 1017.66 1017.86 1018.07 1018.29 1018.49 1018.66 1018.80 1018.92 1019.01 1019.11 1019.19 1019.27 1019.33 1019.36 1019.35 1019.29 1019.19 1019.06 1018.92 1018.78 1018.67 1018.58 1018.50 1018.41 1018.30 1018.15 1017.94
1016.02 1015.91 1015.91 1016.01 1016.20 1016.45 1016.74 1017.02 1017.27 1017.47 1017.60 1017.69 1017.76 1017.81 1017.89 1018.00 1018.16 1018.34 1018.53 1018.72 1018.90 1019.04 1019.16 1019.26 1019.35 1019.43 1019.51 1019.58 1019.63 1019.64 1019.62 1019.55 1019.44 1019.30 1019.16 1019.02 1018.91 1018.81 1018.73 1018.64 1018.53 1018.38 1018.16
1016.29 1016.22 1016.25 1016.39 1016.60 1016.88 1017.18 1017.47 1017.71 1017.91 1018.05 1018.15 1018.23 1018.31 1018.42 1018.56 1018.72 1018.92 1019.12 1019.31 1019.48 1019.61 1019.71 1019.79 1019.86 1019.92 1019.98 1020.02 1020.04 1020.04 1019.99 1019.90 1019.77 1019.62 1019.47 1019.32 1019.19 1019.08 1018.99 1018.89 1018.76 1018.60 1018.39
1016.69 1016.65 1016.71 1016.85 1017.08 1017.35 1017.63 1017.90 1018.13 1018.32 1018.45 1018.56 1018.67 1018.79 1018.94 1019.13 1019.35 1019.59 1019.83 1020.04 1020.22 1020.36 1020.46 1020.53 1020.58 1020.61 1020.63 1020.64 1020.63 1020.58 1020.50 1020.38 1020.23 1020.06 1019.88 1019.71 1019.56 1019.42 1019.30 1019.17 1019.02 1018.85 1018.63
1017.23 1017.20 1017.27 1017.41 1017.62 1017.86 1018.12 1018.35 1018.54 1018.70 1018.83 1018.95 1019.08 1019.24 1019.45 1019.71 1020.00 1020.30 1020.60 1020.87 1021.09 1021.25 1021.36 1021.43 1021.46 1021.47 1021.46 1021.43 1021.37 1021.28 1021.16 1021.00 1020.81 1020.61 1020.40 1020.20 1020.02 1019.85 1019.69 1019.53 1019.35 1019.15 1018.93
1017.88 1017.87 1017.93 1018.06 1018.24 1018.44 1018.64 1018.83 1018.98 1019.10 1019.21 1019.33 1019.48 1019.68 1019.94 1020.26 1020.62 1021.00 1021.37 1021.70 1021.98 1022.19 1022.33 1022.41 1022.45 1022.44 1022.40 1022.32 1022.22 1022.09 1021.92 1021.73 1021.51 1021.28 1021.04 1020.82 1020.60 1020.40 1020.20 1020.00 1019.80 1019.57 1019.34
1018.63 1018.62 1018.67 1018.78 1018.92 1019.08 1019.24 1019.38 1019.48 1019.57 1019.65 1019.76 1019.91 1020.13 1020.42 1020.78 1021.20 1021.63 1022.06 1022.46 1022.79 1023.06 1023.24 1023.36 1023.40 1023.39 1023.33 1023.24 1023.10 1022.93 1022.73 1022.51 1022.27 1022.02 1021.77 1021.53 1021.30 1021.08 1020.85 1020.63 1020.39 1020.15 1019.89
1019.41 1019.40 1019.45 1019.54 1019.66 1019.80 1019.92 1020.01 1020.08 1020.13 1020.18 1020.26 1020.40 1020.60 1020.89 1021.26 1021.69 1022.15 1022.62 1023.06 1023.44 1023.76 1023.99 1024.15 1024.22 1024.23 1024.17 1024.06 1023.91 1023.72 1023.51 1023.27 1023.03 1022.78 1022.54 1022.31 1022.09 1021.87 1021.64 1021.40 1021.15 1020.89 1020.62
1020.15 1020.16 1020.22 1020.31 1020.44 1020.56 1020.67 1020.75 1020.79 1020.81 1020.83 1020.88 1020.97 1021.14 1021.39 1021.72 1022.12 1022.56 1023.02 1023.47 1023.89 1024.24 1024.52 1024.72 1024.84 1024.88 1024.84 1024.74 1024.60 1024.41 1024.19 1023.97 1023.74 1023.52 1023.32 1023.12 1022.93 1022.73 1022.53 1022.30 1022.05 1021.78 1021.50
1020.81 1020.86 1020.94 1021.06 1021.20 1021.35 1021.47 1021.56 1021.60 1021.61 1021.61 1021.61 1021.65 1021.75 1021.93 1022.18 1022.51 1022.90 1023.32 1023.75 1024.16 1024.53 1024.85 1025.09 1025.25 1025.33 1025.33 1025.26 1025.13 1024.96 1024.77 1024.57 1024.38 1024.20 1024.05 1023.91 1023.78 1023.64 1023.47 1023.28 1023.05 1022.79 1022.50
1021.38 1021.46 1021.59 1021.75 1021.94 1022.13 1022.29 1022.41 1022.48 1022.50 1022.48 1022.46 1022.44 1022.47 1022.56 1022.71 1022.94 1023.23 1023.58 1023.96 1024.35 1024.72 1025.06 1025.33 1025.54 1025.66 1025.70 1025.66 1025.56 1025.41 1025.25 1025.08 1024.93 1024.81 1024.71 1024.64 1024.58 1024.51 1024.40 1024.26 1024.07 1023.83 1023.55
1021.86 1021.99 1022.17 1022.39 1022.63 1022.88 1023.10 1023.27 1023.38 1023.43 1023.43 1023.39 1023.34 1023.30 1023.30 1023.35 1023.47 1023.66 1023.92 1024.23 1024.58 1024.93 1025.27 1025.57 1025.81 1025.97 1026.04 1026.03 1025.95 1025.83 1025.68 1025.54 1025.42 1025.35 1025.31 1025.30 1025.30 1025.29 1025.26 1025.17 1025.03 1024.81 1024.55
1022.29 1022.47 1022.71 1022.98 1023.29 1023.60 1023.88 1024.11 1024.28 1024.38 1024.41 1024.38 1024.31 1024.23 1024.16 1024.13 1024.16 1024.26 1024.43 1024.67 1024.97 1025.30 1025.63 1025.94 1026.19 1026.37 1026.46 1026.47 1026.40 1026.29 1026.15 1026.01 1025.90 1025.84 1025.84 1025.86 1025.92 1025.96 1025.98 1025.95 1025.84 1025.67 1025.43
1022.76 1022.98 1023.26 1023.58 1023.93 1024.29 1024.62 1024.92 1025.15 1025.30 1025.38 1025.38 1025.33 1025.25 1025.16 1025.08 1025.05 1025.08 1025.19 1025.37 1025.62 1025.92 1026.23 1026.53 1026.79 1026.97 1027.06 1027.07 1026.99 1026.86 1026.70 1026.54 1026.41 1026.34 1026.32 1026.36 1026.42 1026.49 1026.54 1026.54 1026.47 1026.33 1026.11
1023.32 1023.58 1023.88 1024.23 1024.60 1024.98 1025.35 1025.68 1025.96 1026.17 1026.30 1026.36 1026.36 1026.31 1026.23 1026.15 1026.10 1026.10 1026.17 1026.32 1026.53 1026.79 1027.08 1027.36 1027.60 1027.77 1027.85 1027.83 1027.73 1027.56 1027.36 1027.16 1026.99 1026.87 1026.81 1026.81 1026.85 1026.90 1026.95 1026.95 1026.90 1026.78 1026.59
1024.02 1024.29 1024.60 1024.94 1025.31 1025.68 1026.06 1026.40 1026.71 1026.97 1027.16 1027.29 1027.35 1027.36 1027.33 1027.29 1027.26 1027.26 1027.32 1027.44 1027.63 1027.86 1028.12 1028.38 1028.59 1028.73 1028.78 1028.73 1028.59 1028.37 1028.12 1027.86 1027.62 1027.44 1027.31 1027.25 1027.23 1027.24 1027.25 1027.23 1027.17 1027.05 1026.87
1024.83 1025.11 1025.42 1025.74 1026.07 1026.41 1026.76 1027.09 1027.41 1027.69 1027.93 1028.12 1028.26 1028.35 1028.39 1028.41 1028.43 1028.46 1028.53 1028.64 1028.80 1029.01 1029.23 1029.45 1029.62 1029.73 1029.74 1029.66 1029.48 1029.23 1028.93 1028.62 1028.32 1028.06 1027.86 1027.72 1027.63 1027.56 1027.51 1027.44 1027.34 1027.20 1027.02
1025.72 1026.01 1026.29 1026.58 1026.86 1027.15 1027.44 1027.74 1028.04 1028.34 1028.61 1028.86 1029.07 1029.23 1029.36 1029.45 1029.52 1029.59 1029.67 1029.78 1029.92 1030.09 1030.27 1030.44 1030.58 1030.64 1030.63 1030.52 1030.33 1030.05 1029.73 1029.38 1029.04 1028.73 1028.46 1028.24 1028.07 1027.92 1027.79 1027.65 1027.50 1027.32 1027.11
1026.61 1026.90 1027.16 1027.41 1027.64 1027.86 1028.10 1028.35 1028.62 1028.91 1029.21 1029.49 1029.76 1030.00 1030.19 1030.34 1030.46 1030.56 1030.65 1030.75 1030.86 1030.99 1031.12 1031.24 1031.34 1031.38 1031.34 1031.23 1031.04 1030.77 1030.45 1030.10 1029.75 1029.42 1029.11 1028.84 1028.59 1028.37 1028.16 1027.95 1027.72 1027.48 1027.22
1027.39 1027.69 1027.94 1028.15 1028.34 1028.51 1028.70 1028.91 1029.15 1029.42 1029.73 1030.04 1030.35 1030.63 1030.88 1031.08 1031.23 1031.34 1031.42 1031.49 1031.57 1031.64 1031.72 1031.80 1031.85 1031.87 1031.83 1031.73 1031.57 1031.34 1031.06 1030.75 1030.43 1030.10 1029.79 1029.49 1029.20 1028.92 1028.64 1028.35 1028.05 1027.74 1027.42
1027.98 1028.30 1028.55 1028.75 1028.91 1029.06 1029.21 1029.39 1029.62 1029.88 1030.19 1030.52 1030.86 1031.17 1031.44 1031.65 1031.81 1031.92 1031.98 1032.02 1032.04 1032.06 1032.09 1032.11 1032.13 1032.14 1032.11 1032.04 1031.92 1031.76 1031.55 1031.30 1031.04 1030.76 1030.47 1030.17 1029.87 1029.55 1029.22 1028.87 1028.50 1028.12 1027.73
1028.34 1028.68 1028.94 1029.15 1029.32 1029.46 1029.62 1029.80 1030.03 1030.30 1030.62 1030.96 1031.31 1031.63 1031.90 1032.12 1032.27 1032.35 1032.38 1032.37 1032.34 1032.31 1032.28 1032.27 1032.26 1032.26 1032.24 1032.21 1032.15 1032.05 1031.92 1031.76 1031.57 1031.35 1031.10 1030.83 1030.53 1030.20 1029.83 1029.44 1029.01 1028.57 1028.12
1028.45 1028.82 1029.11 1029.35 1029.55 1029.73 1029.92 1030.13 1030.39 1030.68 1031.02 1031.37 1031.72 1032.04 1032.31 1032.51 1032.64 1032.69 1032.68 1032.63 1032.56 1032.48 1032.42 1032.37 1032.34 1032.34 1032.34 1032.33 1032.32 1032.29 1032.23 1032.13 1032.01 1031.85 1031.64 1031.40 1031.12 1030.79 1030.41 1029.99 1029.53 1029.05 1028.55
Thickness
5747 5746 5744 5744 5743 5742 5741 5740 5739 5738 5737 5736 5734 5732 5731 5729 5726 5723 5721 5721 5721 5721 5721 5720 5719 5718 5718 5717 5717 5716 5716 5716 5715 5715 5715 5715 5715 5716 5716 5716 5717 5718 5719
5745 5743 5742 5741 5741 5740 5738 5737 5735 5734 5732 5731 5729 5728 5727 5725 5723 5720 5718 5717 5716 5716 5716 5715 5715 5714 5714 5713 5713 5712 5712 5712 5711 5711 5711 5711 5711 5711 5712 5712 5713 5713 5714
5742 5741 5740 5738 5738 5737 5735 5734 5732 5730 5728 5726 5724 5723 5722 5721 5720 5718 5716 5714 5712 5712 5711 5711 5710 5710 5710 5709 5709 5708 5708 5707 5707 5707 5707 5707 5707 5707 5707 5708 5708 5708 5709
5739 5738 5736 5735 5734 5733 5731 5729 5727 5724 5722 5720 5719 5719 5718 5717 5716 5715 5714 5712 5710 5709 5707 5706 5705 5705 5705 5705 5704 5704 5704 5703 5703 5703 5702 5702 5702 5702 5702 5703 5703 5703 5703
5736 5734 5732 5731 5730 5729 5728 5726 5722 5720 5717 5715 5714 5714 5713 5713 5712 5712 5711 5709 5708 5706 5704 5702 5701 5700 5700 5700 5700 5700 5699 5699 5699 5698 5697 5697 5697 5697 5697 5697 5697 5698 5698
5733 5731 5729 5727 5726 5725 5722 5720 5718 5716 5714 5712 5711 5709 5709 5709 5708 5707 5707 5706 5704 5703 5701 5699 5698 5696 5695 5695 5695 5695 5695 5695 5694 5693 5693 5692 5692 5691 5692 5692 5692 5692 5692
5729 5728 5725 5723 5722 5720 5718 5717 5714 5711 5709 5709 5704 5701 5703 5704 5703 5702 5702 5701 5701 5700 5698 5696 5694 5693 5691 5690 5690 5690 5690 5690 5689 5689 5688 5687 5687 5686 5686 5686 5686 5686 5687
5726 5724 5722 5719 5718 5716 5714 5712 5710 5706 5705 5705 5700 5694 5690 5691 5695 5698 5697 5696 5696 5696 5694 5693 5691 5689 5687 5686 5685 5685 5685 5685 5685 5684 5683 5682 5681 5681 5681 5681 5680 5680 5681
5722 5721 5719 5717 5715 5713 5709 5708 5707 5704 5700 5701 5701 5694 5686 5681 5684 5688 5690 5690 5690 5689 5689 5688 5687 5685 5683 5681 5680 5679 5679 5679 5679 5678 5678 5677 5677 5676 5675 5675 5675 5674 5674
5718 5717 5716 5714 5712 5710 5707 5706 5705 5703 5700 5696 5697 5697 5695 5690 5682 5677 5681 5684 5685 5684 5683 5683 5681 5680 5679 5677 5675 5675 5674 5674 5673 5673 5673 5672 5672 5671 5670 5670 5669 5669 5669
5715 5714 5713 5712 5710 5707 5705 5703 5702 5700 5698 5695 5693 5693 5691 5690 5688 5679 5672 5675 5677 5678 5678 5677 5676 5675 5674 5672 5670 5670 5669 5668 5667 5667 5667 5666 5666 5666 5665 5664 5664 5663 5663
5711 5711 5710 5708 5707 5705 5703 5701 5699 5697 5696 5694 5692 5691 5688 5685 5682 5679 5673 5671 5670 5671 5673 5673 5671 5670 5669 5667 5665 5664 5664 5663 5662 5661 5661 5660 5660 5660 5659 5658 5658 5657 5657
5706 5707 5707 5705 5704 5702 5701 5699 5696 5694 5693 5691 5689 5688 5687 5685 5684 5680 5674 5669 5666 5666 5667 5667 5667 5666 5664 5663 5660 5659 5658 5657 5657 5656 5655 5654 5653 5653 5653 5652 5651 5651 5651
5705 5705 5704 5702 5701 5700 5698 5696 5693 5691 5690 5688 5687 5685 5684 5683 5682 5679 5673 5667 5661 5660 5660 5660 5661 5661 5660 5658 5656 5655 5653 5652 5651 5650 5649 5648 5647 5647 5646 5645 5644 5644 5643
5703 5702 5701 5700 5698 5696 5695 5692 5689 5688 5687 5685 5683 5682 5680 5679 5678 5676 5673 5669 5661 5654 5651 5654 5654 5655 5654 5653 5652 5650 5648 5647 5646 5645 5644 5642 5641 5640 5639 5638 5637 5636 5636
5701 5700 5698 5696 5695 5693 5691 5689 5686 5684 5682 5680 5679 5677 5675 5675 5673 5672 5669 5667 5664 5658 5650 5649 5650 5650 5650 5648 5646 5645 5644 5642 5641 5639 5638 5637 5635 5634 5633 5631 5630 5629 5628
5698 5697 5695 5693 5691 5689 5687 5685 5682 5681 5679 5677 5675 5673 5671 5670 5668 5667 5665 5662 5660 5656 5648 5646 5646 5646 5645 5643 5641 5641 5639 5638 5636 5634 5633 5631 5630 5628 5627 5625 5623 5622 5621
5695 5694 5693 5691 5688 5686 5684 5681 5678 5677 5674 5672 5671 5669 5666 5666 5663 5662 5660 5658 5655 5653 5647 5641 5640 5640 5639 5639 5638 5636 5635 5634 5632 5630 5628 5626 5624 5623 5621 5619 5617 5615 5614
5692 5691 5689 5687 5685 5682 5680 5678 5675 5673 5671 5669 5667 5664 5662 5661 5658 5657 5655 5653 5651 5650 5645 5640 5636 5636 5635 5635 5633 5632 5631 5629 5628 5626 5624 5621 5619 5617 5615 5612 5610 5608 5607
5689 5687 5685 5683 5681 5679 5677 5674 5672 5669 5667 5664 5663 5660 5658 5656 5654 5653 5651 5649 5647 5643 5640 5636 5633 5631 5630 5629 5628 5625 5624 5624 5623 5622 5619 5617 5615 5612 5609 5606 5604 5601 5600
5685 5683 5681 5679 5677 5674 5672 5669 5667 5665 5662 5659 5657 5655 5653 5652 5651 5649 5647 5644 5642 5638 5635 5632 5628 5626 5624 5622 5621 5621 5619 5618 5617 5616 5614 5612 5610 5607 5603 5600 5598 5595 5593
5679 5678 5676 5673 5671 5669 5667 5665 5663 5660 5658 5655 5652 5651 5649 5647 5646 5644 5642 5640 5638 5635 5631 5628 5624 5621 5619 5619 5618 5618 5614 5612 5609 5610 5608 5606 5605 5601 5598 5595 5593 5590 5587
5674 5672 5671 5668 5666 5663 5662 5660 5659 5657 5654 5652 5650 5648 5646 5643 5641 5639 5637 5635 5633 5631 5630 5626 5621 5619 5617 5616 5615 5613 5610 5607 5604 5604 5602 5599 5598 5595 5593 5590 5588 5584 5581
5669 5667 5666 5664 5661 5659 5658 5656 5654 5652 5649 5648 5646 5644 5641 5638 5637 5634 5632 5629 5627 5625 5625 5622 5620 5618 5616 5615 5613 5611 5608 5605 5602 5600 5597 5591 5590 5589 5587 5584 5581 5578 5575
5665 5663 5662 5660 5657 5655 5654 5652 5650 5647 5644 5643 5641 5640 5637 5634 5633 5631 5628 5624 5622 5620 5619 5618 5617 5615 5614 5612 5609 5606 5602 5598 5593 5591 5590 5586 5583 5581 5580 5577 5574 5571 5568
5661 5659 5658 5656 5654 5652 5650 5648 5646 5643 5640 5638 5636 5634 5633 5631 5629 5627 5623 5621 5617 5616 5615 5612 5611 5609 5608 5606 5603 5601 5597 5592 5587 5584 5583 5580 5577 5574 5571 5570 5567 5564 5561